This is the latest recevied weather packets stored in our database for station/object F1AGU-13. If no packets are shown the sender has not sent any weather packets the latest 10 day(s).
| Time | Temp. | Humidity | Pressure | Rain* | Wind** | Luminosity | Snow |
|---|---|---|---|---|---|---|---|
| 1777826716 | 13.33° C | 71% | 1015.5 hPa | 0 mm | - | - | - |
| 1777826116 | 12.78° C | 77% | 1015.3 hPa | 0 mm | - | - | - |
| 1777825516 | 12.78° C | 76% | 1015.3 hPa | 0 mm | - | - | - |
| 1777824916 | 12.78° C | 79% | 1015.3 hPa | 0 mm | - | - | - |
| 1777824316 | 12.22° C | 76% | 1015.6 hPa | 0 mm | - | - | - |
| 1777823716 | 12.22° C | 79% | 1015.6 hPa | 0 mm | - | - | - |
| 1777823116 | 12.22° C | 83% | 1015.8 hPa | 0 mm | - | - | - |
| 1777822516 | 12.22° C | 82% | 1016 hPa | 0 mm | - | - | - |
| 1777821916 | 12.22° C | 80% | 1016.1 hPa | 0 mm | - | - | - |
| 1777821317 | 12.78° C | 78% | 1016.6 hPa | 0 mm | - | - | - |
| 1777820716 | 12.78° C | 70% | 1016.7 hPa | 0 mm | - | - | - |
| 1777820116 | 12.78° C | 71% | 1016.6 hPa | 0 mm | - | - | - |
| 1777819516 | 13.33° C | 63% | 1016.7 hPa | 0 mm | - | - | - |
| 1777818916 | 13.33° C | 61% | 1016.8 hPa | 0 mm | - | - | - |
| 1777818316 | 13.33° C | 65% | 1016.8 hPa | 0 mm | - | - | - |
| 1777817716 | 13.33° C | 65% | 1016.8 hPa | 0 mm | - | - | - |
| 1777817116 | 13.33° C | 62% | 1017 hPa | 0 mm | - | - | - |
| 1777816516 | 13.33° C | 65% | 1017 hPa | 0 mm | - | - | - |
| 1777815916 | 13.33° C | 67% | 1017.2 hPa | 0 mm | - | - | - |
| 1777815316 | 13.33° C | 69% | 1017.1 hPa | 0 mm | - | - | - |
| 1777814716 | 13.33° C | 68% | 1017.3 hPa | 0 mm | - | - | - |
| 1777814116 | 13.33° C | 68% | 1017.4 hPa | 0 mm | - | - | - |
| 1777813516 | 13.33° C | 66% | 1017.7 hPa | 0 mm | - | - | - |
| 1777812916 | 13.89° C | 66% | 1017.7 hPa | 0 mm | - | - | - |
| 1777812316 | 13.89° C | 65% | 1017.3 hPa | 0 mm | - | - | - |
* Rain latest hour (hover to see other rain measurements)
** Current wind speed in m/s (hover to see current wind gust speed)